Imperial, NE

10:16 AM MST on February 20, 2017 (GMT -0700)
Imperial Municipal

Weather History for KIML - November, 2011

Change the Weather History Date:

Wednesday, November 16, 2011

  Actual Average Record
Temperature  
Mean Temperature 25 °F 37 °F  
Max Temperature 34 °F 51 °F 80 °F (1941)
Min Temperature 15 °F 24 °F -9 °F (1955)
Degree Days  
Heating Degree Days 40 28  
Month to date heating degree days 396 388  
Cooling Degree Days 0 0  
Month to date cooling degree days 0 0  
Year to date cooling degree days 1096 963  
Moisture  
Dew Point 21 °F    
Average Humidity 71    
Maximum Humidity 92    
Minimum Humidity 49    
Precipitation  
Precipitation 0.12 in 0.02 in 0.55 in (1926)
Sea Level Pressure  
Sea Level Pressure 30.29 in    
Wind  
Wind Speed 7 mph (NW)    
Max Wind Speed 20 mph    
Max Gust Speed 24 mph    
Visibility 6 miles    
Events Fog , Snow    
T = Trace of Precipitation, MM = Missing Value Source: NWS Daily Summary

Daily Weather History Graph

Daily Weather History Graph

Search for Another Location

Airport or City:

Trip Planner

Search our weather history database for the weather conditions in past years. The results will help you decide how hot, cold, wet, or windy it might be!

Date:

Astronomy

Nov. 16, 2011 Rise Set
Actual Time 6:33 AM MST 4:28 PM MST
Civil Twilight 6:04 AM MST 4:57 PM MST
Nautical Twilight 5:31 AM MST 5:30 PM MST
Astronomical Twilight 4:59 AM MST 6:02 PM MST
Moon 9:44 PM MST (11/16) 11:10 AM MST (11/16)
Length of Visible Light 10h 53m
Length of Day
9h 54m
Waning Gibbous, 69% of the Moon is Illuminated
Nov 16
Waning Gibbous
Nov 18
Last Quarter
Nov 24
New
Dec 2
First Quarter
Dec 10
Full

Hourly Weather History & Observations

Time (MST) Temp. Windchill Dew Point Humidity Pressure Visibility Wind Dir Wind Speed Gust Speed Precip Events Conditions
12:53 AM 27.0 °F - 15.1 °F 61% 30.16 in 10.0 mi Calm Calm - N/A   Overcast
1:53 AM 28.0 °F 21.7 °F 14.0 °F 56% 30.17 in 10.0 mi NNE 5.8 mph - N/A   Overcast
2:53 AM 26.1 °F 16.8 °F 19.9 °F 78% 30.21 in 3.0 mi North 9.2 mph - 0.00 in Snow Light Snow
2:59 AM 26.6 °F 16.8 °F 19.4 °F 74% 30.14 in 1.8 mi NNE 10.4 mph - 0.00 in Snow Light Snow
3:28 AM 24.8 °F 16.1 °F 23.0 °F 93% 30.15 in 0.8 mi North 8.1 mph - 0.00 in Snow Light Snow
3:45 AM 24.8 °F 16.9 °F 23.0 °F 93% 30.16 in 0.8 mi North 6.9 mph - 0.00 in Snow Light Snow
3:51 AM 24.8 °F 16.1 °F 23.0 °F 93% 30.17 in 1.0 mi NNW 8.1 mph - N/A Snow Light Snow
3:53 AM 25.0 °F 18.1 °F 23.0 °F 92% 30.24 in 1.2 mi NW 5.8 mph - 0.00 in Snow Light Snow
4:03 AM 24.8 °F 17.9 °F 23.0 °F 93% 30.17 in 0.8 mi NNW 5.8 mph - 0.00 in Snow Light Snow
4:34 AM 24.8 °F 17.9 °F 23.0 °F 93% 30.16 in 0.5 mi North 5.8 mph - 0.00 in Fog , Snow Snow
4:43 AM 24.8 °F 19.1 °F 23.0 °F 93% 30.17 in 0.8 mi North 4.6 mph - 0.00 in Snow Light Snow
4:47 AM 24.8 °F 19.1 °F 23.0 °F 93% 30.16 in 1.0 mi North 4.6 mph - 0.00 in Snow Light Snow
4:53 AM 25.0 °F 19.3 °F 23.0 °F 92% 30.25 in 1.5 mi North 4.6 mph - 0.00 in Snow Light Snow
5:07 AM 24.8 °F 19.1 °F 23.0 °F 93% 30.17 in 1.8 mi NNW 4.6 mph - 0.00 in Snow Light Snow
5:11 AM 24.8 °F 20.5 °F 23.0 °F 93% 30.17 in 3.0 mi NNW 3.5 mph - 0.00 in Snow Light Snow
5:23 AM 24.8 °F - 23.0 °F 93% 30.17 in 5.0 mi Calm Calm - 0.00 in Snow Light Snow
5:53 AM 25.0 °F - 23.0 °F 92% 30.28 in 10.0 mi Calm Calm - 0.00 in   Overcast
6:38 AM 24.8 °F 20.5 °F 23.0 °F 93% 30.21 in 2.5 mi WSW 3.5 mph - 0.00 in Snow Light Snow
6:48 AM 24.8 °F 20.5 °F 23.0 °F 93% 30.21 in 1.5 mi West 3.5 mph - 0.00 in Snow Light Snow
6:53 AM 24.1 °F - 23.0 °F 96% 30.32 in 1.5 mi Calm Calm - 0.00 in Snow Light Snow
7:00 AM 24.8 °F 20.5 °F 23.0 °F 93% 30.22 in 2.0 mi West 3.5 mph - N/A Snow Light Snow
7:10 AM 24.8 °F - 23.0 °F 93% 30.22 in 7.0 mi Calm Calm - 0.00 in   Overcast
7:53 AM 25.0 °F 19.3 °F 23.0 °F 92% 30.38 in 10.0 mi WNW 4.6 mph - 0.00 in   Overcast
8:37 AM 26.6 °F 20.0 °F 23.0 °F 86% 30.28 in 2.5 mi NW 5.8 mph - 0.00 in Snow Light Snow
8:44 AM 26.6 °F 20.0 °F 24.8 °F 93% 30.28 in 1.2 mi NW 5.8 mph - 0.00 in Snow Light Snow
8:49 AM 26.6 °F 20.0 °F 24.8 °F 93% 30.28 in 2.0 mi NW 5.8 mph - 0.00 in Snow Light Snow
8:53 AM 27.0 °F 20.5 °F 24.1 °F 89% 30.40 in 3.0 mi NW 5.8 mph - 0.00 in Snow Light Snow
9:16 AM 28.4 °F 19.1 °F 24.8 °F 86% 30.29 in 10.0 mi NNW 10.4 mph - 0.01 in   Overcast
9:34 AM 28.4 °F 20.4 °F 24.8 °F 86% 30.30 in 10.0 mi NNW 8.1 mph - 0.01 in   Overcast
9:46 AM 28.4 °F 20.4 °F 24.8 °F 86% 30.30 in 10.0 mi NW 8.1 mph - 0.02 in   Overcast
9:53 AM 28.9 °F 21.1 °F 24.1 °F 82% 30.42 in 8.0 mi WNW 8.1 mph - 0.02 in   Overcast
10:05 AM 28.4 °F 19.1 °F 24.8 °F 86% 30.31 in 2.5 mi NW 10.4 mph - 0.01 in Snow Light Snow
10:12 AM 28.4 °F 20.4 °F 23.0 °F 80% 30.31 in 8.0 mi NW 8.1 mph - 0.01 in   Overcast
10:53 AM 28.9 °F 20.4 °F 23.0 °F 78% 30.42 in 10.0 mi NW 9.2 mph - 0.03 in   Overcast
11:26 AM 28.4 °F 19.1 °F 23.0 °F 80% 30.31 in 8.0 mi NW 10.4 mph - 0.01 in   Overcast
11:53 AM 30.0 °F 21.7 °F 23.0 °F 75% 30.41 in 7.0 mi NW 9.2 mph - 0.02 in   Overcast
12:53 PM 32.0 °F 22.1 °F 23.0 °F 69% 30.39 in 9.0 mi NNW 13.8 mph - 0.05 in   Overcast
1:53 PM 33.1 °F 23.0 °F 21.9 °F 64% 30.38 in 9.0 mi NW 15.0 mph 20.7 mph N/A   Overcast
2:53 PM 33.1 °F 23.9 °F 19.9 °F 59% 30.39 in 10.0 mi NW 12.7 mph - 0.00 in   Partly Cloudy
3:53 PM 33.1 °F 23.9 °F 17.1 °F 52% 30.40 in 10.0 mi NW 12.7 mph - N/A   Clear
4:53 PM 30.2 °F 21.3 °F 14.0 °F 51% 30.30 in 10.0 mi NW 10.4 mph - N/A   Clear
5:53 PM 25.0 °F 19.3 °F 12.9 °F 60% 30.42 in 10.0 mi NW 4.6 mph - N/A   Clear
6:53 PM 16.0 °F - 10.9 °F 81% 30.43 in 10.0 mi Calm Calm - N/A   Clear
7:53 PM 19.9 °F 10.1 °F 12.0 °F 71% 30.43 in 10.0 mi SW 8.1 mph - N/A   Clear
8:53 PM 17.1 °F 7.6 °F 10.9 °F 77% 30.45 in 10.0 mi WSW 6.9 mph - N/A   Clear
9:53 PM 17.1 °F 8.7 °F 10.9 °F 77% 30.43 in 10.0 mi SW 5.8 mph - N/A   Clear
10:53 PM 18.0 °F 7.7 °F 10.0 °F 71% 30.41 in 10.0 mi SW 8.1 mph - N/A   Clear
11:53 PM 19.9 °F 10.1 °F 10.9 °F 68% 30.39 in 10.0 mi WSW 8.1 mph - N/A   Clear